Location: Keppel Henge
(44.7900°N, 80.9447°W)
Time: 18:26:51
(UTC-04:00)

ISS - Pass Details

Date: 13 October 2017
Orbit: 401 x 408 km, 51.6° (Epoch: 18 October)

Event Time Altitude Azimuth Distance (km) Brightness Sun altitude
Rises 20:16:57 0° 295° (WNW) 2,325 1.4 -17.6°
Reaches altitude 10° 20:19:09 10° 285° (WNW) 1,463 0.2 -18.0°
Maximum altitude 20:22:08 33° 220° (SW) 707 -2.4 -18.5°
Enters shadow 20:23:22 24° 177° (S) 882 -2.3 -18.7°
